ALOUETTE 2

Satellite information

Favourite Embed

Satellite Type and Status

PAYLOADIN ORBIT

Key statistics

Satellite ALOUETTE 2 at a glance.

Uptime

21929

Days in orbit

Revolutions

≈ 12.3

Per day

Orbit

HEO

HEO

Inclination

79.8

Latest

Satellite identification and parameters

Extended collection of information and parameters for ALOUETTE 2.

Object identification

Identified? True

Debris? False

Object name: ALOUETTE 2

International designator: 1965-098A

Object number (NORAD): 1804

Object ID (CCSDS): 1804

Country: CANADA (CA)

Current information (Y/N): Y

RCS size: MEDIUM

Orbital parameters

Period: 117.253 minutes

Inclination: 79.8028 deg

SMA: 7935.538 km

Apoapsis: 2613.474 km

Periapsis: 501.332 km

RAAN: 75.6319 deg

Eccentricy: 0.13308122

Argument of periapsis: 251.3674 deg

Mean anomaly: 93.8625 deg

Mean motion: 12.28112576 rev/day

Mean motion (dot): 0.0000134 rev/day2

B* drag term: 0.00044355982 1/REarth

Two-line elements (TLE)

Creation date: Dec. 12, 2025, 10:14 a.m.

Reference frame: TEME

Reference center: EARTH

Epoch: Dec. 12, 2025, 7:23 a.m. UTC

TLE line 0: 0 ALOUETTE 2

TLE line 1: 1 01804U 65098A 25346.30795499 .00001340 00000-0 44356-3 0 9990

TLE line 2: 2 01804 79.8028 75.6319 1330812 251.3674 93.8625 12.28112576656337

Live tracking on map

Real-time ground track for satellite ALOUETTE 2.

In-orbit conjunctions

A list of the most updated potential collisions computed for object ALOUETTE 2.

Target Orbit TCA Probability of collision Miss distance Type
CZ-6A DEB LEO 2025-03-14 15:00:51 0.0001601771 450.0 (m) DEBRIS
SCOUT A DEB LEO 2024-10-28 18:46:50 0.003301385 43.0 (m) DEBRIS

Associated space launch

Canadian small ionospheric observatory instrumented with a sweep-frequency ionospheric sounder, a VLF receiver, an energetic particle experiment, a cosmic noise experiment, and an electrostatic probe.

ALOUETTE 2 was lifted into orbit during the mission ‘Thor SLV-2 Agena B | Alouette 2’, on board a Thor SLV-2 Agena B space rocket.

The launch took place on Nov. 29, 1965, 4:48 a.m. from Space Launch Complex 2E.

For more information about the launch, click the button.

Launch to space Thor SLV-2 Agena B | Alouette 2
Thor SLV-2 Agena B | Alouette 2

Agency: N/A

Status: Launch Successful

Launch date: Nov. 29, 1965, 4:48 a.m. UTC

Rocket: Thor SLV-2 Agena B

Launch pad: Space Launch Complex 2E

Location: Vandenberg SFB, CA, USA

...

Latest news about this satellite

There are no fresh news available about this satellite. Check back as we update our databases every day.


Newsletter sign-up

Weekly statistics, charts and insights to help you stay on top of the space industry.